AUL111 ULAA-ULLI

Flight info

Callsign AUL111
Flight time 1h 25m
Altitude 36000
Route MAKOG T821 ROGID M856 GIKUR T458 BEPOL
Aircraft B738/M-SDRWY/L

Departure

Time 2026-05-07 08:23
Airport Talagi Airport (ULAA)

Arrival

Time 2026-05-07 09:49
Airport Pulkovo Airport (ULLI)
Time Latitude Longitude Altitude Speed Heading
2026-05-07 07:53 64.59667 40.71462 71 ft 0 kts 185°
2026-05-07 08:14 64.59674 40.71464 71 ft 2 kts 187°
2026-05-07 08:14 64.59689 40.71469 71 ft 2 kts 187°
2026-05-07 08:15 64.59703 40.71473 71 ft 2 kts 205°
2026-05-07 08:15 64.59714 40.71496 71 ft 2 kts 246°
2026-05-07 08:15 64.59716 40.71531 71 ft 2 kts 284°
2026-05-07 08:15 64.59714 40.71549 71 ft 0 kts 281°
2026-05-07 08:18 64.59716 40.71511 71 ft 4 kts 277°
2026-05-07 08:18 64.59719 40.71455 71 ft 5 kts 282°
2026-05-07 08:18 64.59769 40.71387 71 ft 8 kts
2026-05-07 08:19 64.59812 40.71383 71 ft 9 kts 337°
2026-05-07 08:19 64.59870 40.71304 71 ft 11 kts
2026-05-07 08:19 64.59989 40.71330 71 ft 14 kts
2026-05-07 08:19 64.60037 40.71415 71 ft 14 kts 76°
2026-05-07 08:20 64.60024 40.71743 71 ft 17 kts 97°
2026-05-07 08:20 64.60009 40.72031 71 ft 18 kts 95°
2026-05-07 08:20 64.60001 40.72229 71 ft 18 kts 96°
2026-05-07 08:20 64.59986 40.72535 71 ft 20 kts 97°
2026-05-07 08:21 64.59964 40.72978 71 ft 20 kts 96°
2026-05-07 08:21 64.59948 40.73322 71 ft 21 kts 97°
2026-05-07 08:21 64.59930 40.73685 71 ft 23 kts 97°
2026-05-07 08:21 64.59914 40.73995 71 ft 10 kts 97°
2026-05-07 08:22 64.59898 40.74105 71 ft 11 kts 120°
2026-05-07 08:22 64.59920 40.74190 71 ft 10 kts 279°
2026-05-07 08:22 64.59917 40.73989 71 ft 13 kts 274°
2026-05-07 08:22 64.59924 40.73832 71 ft 17 kts 279°
2026-05-07 08:23 64.59995 40.72387 71 ft 118 kts 276°
2026-05-07 08:23 64.60068 40.70881 72 ft 161 kts 275°
2026-05-07 08:23 64.60177 40.68018 536 ft 183 kts 274°
2026-05-07 08:23 64.60364 40.64160 1647 ft 187 kts 276°
2026-05-07 08:24 64.60520 40.61087 2148 ft 200 kts 278°
2026-05-07 08:24 64.60635 40.58890 2351 ft 214 kts 277°
2026-05-07 08:24 64.60881 40.53966 2994 ft 242 kts 277°
2026-05-07 08:24 64.61072 40.49986 3811 ft 251 kts 277°
2026-05-07 08:25 64.61199 40.47321 4436 ft 253 kts 276°
2026-05-07 08:25 64.60832 40.41901 5515 ft 265 kts 240°
2026-05-07 08:25 64.59577 40.38893 6499 ft 266 kts 219°
2026-05-07 08:25 64.58174 40.36178 7384 ft 268 kts 225°
2026-05-07 08:26 64.56001 40.30810 8755 ft 275 kts 228°
2026-05-07 08:26 64.54265 40.26394 9836 ft 281 kts 229°
2026-05-07 08:26 64.53391 40.24152 10363 ft 283 kts 229°
2026-05-07 08:27 64.52080 40.20781 11192 ft 285 kts 229°
2026-05-07 08:27 64.50300 40.16201 12197 ft 290 kts 229°
2026-05-07 08:27 64.48944 40.12715 12954 ft 293 kts 229°
2026-05-07 08:27 64.47568 40.09181 13692 ft 297 kts 229°
2026-05-07 08:28 64.46188 40.05642 14413 ft 300 kts 229°
2026-05-07 08:28 64.45250 40.03236 14887 ft 302 kts 229°
2026-05-07 08:28 64.43834 39.99612 15579 ft 305 kts 230°
2026-05-07 08:28 64.42423 39.96006 16243 ft 308 kts 230°
2026-05-07 08:29 64.40982 39.92331 16896 ft 312 kts 230°
2026-05-07 08:29 64.39507 39.88575 17543 ft 315 kts 230°
2026-05-07 08:29 64.38052 39.84874 18155 ft 318 kts 230°
2026-05-07 08:29 64.36060 39.79818 18966 ft 322 kts 230°
2026-05-07 08:30 64.34542 39.75973 19555 ft 325 kts 230°
2026-05-07 08:30 64.33007 39.72078 20126 ft 328 kts 230°
2026-05-07 08:30 64.31478 39.68203 20678 ft 331 kts 230°
2026-05-07 08:30 64.29915 39.64254 21218 ft 334 kts 230°
2026-05-07 08:31 64.28861 39.61602 21576 ft 336 kts 230°
2026-05-07 08:31 64.26749 39.56326 22253 ft 340 kts 230°
2026-05-07 08:31 64.25152 39.52349 22735 ft 343 kts 230°
2026-05-07 08:31 64.24061 39.49624 23073 ft 344 kts 231°
2026-05-07 08:32 64.22433 39.45527 23572 ft 347 kts 231°
2026-05-07 08:32 64.20261 39.40018 24140 ft 352 kts 231°
2026-05-07 08:32 64.19181 39.37284 24439 ft 353 kts 231°
2026-05-07 08:32 64.16966 39.31707 25052 ft 356 kts 230°
2026-05-07 08:33 64.15278 39.27543 25485 ft 359 kts 230°
2026-05-07 08:33 64.13545 39.23340 25899 ft 362 kts 229°
2026-05-07 08:33 64.12405 39.20576 26183 ft 363 kts 230°
2026-05-07 08:33 64.10091 39.14908 26687 ft 367 kts 230°
2026-05-07 08:34 64.08347 39.10621 27070 ft 369 kts 230°
2026-05-07 08:34 64.06577 39.06410 27505 ft 370 kts 230°
2026-05-07 08:34 64.04891 39.01984 27870 ft 370 kts 235°
2026-05-07 08:34 64.03348 38.97310 28335 ft 368 kts 236°
2026-05-07 08:35 64.02316 38.94156 28611 ft 369 kts 236°
2026-05-07 08:35 64.00754 38.89490 28895 ft 373 kts 234°
2026-05-07 08:35 63.98659 38.83303 29411 ft 373 kts 235°
2026-05-07 08:35 63.97065 38.78598 29685 ft 376 kts 234°
2026-05-07 08:36 63.95998 38.75460 29886 ft 378 kts 234°
2026-05-07 08:36 63.93843 38.69154 30317 ft 380 kts 235°
2026-05-07 08:36 63.92223 38.64426 30613 ft 381 kts 235°
2026-05-07 08:36 63.91119 38.61209 30766 ft 384 kts 234°
2026-05-07 08:37 63.88914 38.54832 31142 ft 386 kts 235°
2026-05-07 08:37 63.87810 38.51644 31338 ft 387 kts 235°
2026-05-07 08:37 63.85590 38.45183 31713 ft 389 kts 235°
2026-05-07 08:37 63.83921 38.40363 31987 ft 390 kts 235°
2026-05-07 08:38 63.82247 38.35556 32276 ft 391 kts 235°
2026-05-07 08:38 63.80555 38.30702 32564 ft 392 kts 234°
2026-05-07 08:38 63.78880 38.25903 32798 ft 394 kts 234°
2026-05-07 08:38 63.77743 38.22639 32961 ft 395 kts 234°
2026-05-07 08:39 63.75456 38.16103 33269 ft 397 kts 234°
2026-05-07 08:39 63.73741 38.11239 33433 ft 401 kts 234°
2026-05-07 08:39 63.72570 38.07930 33585 ft 402 kts 234°
2026-05-07 08:39 63.70262 38.01423 33888 ft 403 kts 234°
2026-05-07 08:40 63.68478 37.96403 33998 ft 408 kts 234°
2026-05-07 08:40 63.66707 37.91435 34254 ft 408 kts 234°
2026-05-07 08:40 63.64939 37.86471 34445 ft 410 kts 234°
2026-05-07 08:40 63.63742 37.83103 34523 ft 412 kts 234°
2026-05-07 08:41 63.61333 37.76395 34712 ft 416 kts 233°
2026-05-07 08:41 63.60110 37.73043 34849 ft 417 kts 233°
2026-05-07 08:41 63.58282 37.68051 35078 ft 417 kts 233°
2026-05-07 08:41 63.55850 37.61375 35399 ft 417 kts 234°
2026-05-07 08:42 63.54025 37.56285 35701 ft 414 kts 234°
2026-05-07 08:42 63.52844 37.52950 35905 ft 413 kts 235°
2026-05-07 08:42 63.51067 37.47933 36099 ft 414 kts 235°
2026-05-07 08:42 63.49254 37.42867 36104 ft 419 kts 234°
2026-05-07 08:43 63.45537 37.32572 36100 ft 429 kts 233°
2026-05-07 08:43 63.41099 37.20427 36101 ft 434 kts 233°
2026-05-07 08:44 63.37921 37.11811 36099 ft 431 kts 233°
2026-05-07 08:44 63.33505 36.99881 36101 ft 423 kts 233°
2026-05-07 08:45 63.30395 36.91522 36101 ft 421 kts 233°
2026-05-07 08:45 63.26661 36.81536 36101 ft 421 kts 233°
2026-05-07 08:46 63.22898 36.71565 36100 ft 422 kts 232°
2026-05-07 08:46 63.18849 36.62118 36101 ft 424 kts 225°
2026-05-07 08:47 63.14421 36.53451 36101 ft 425 kts 225°
2026-05-07 08:47 63.10076 36.44673 36101 ft 423 kts 226°
2026-05-07 08:48 63.04961 36.34539 36101 ft 424 kts 224°
2026-05-07 08:48 63.00554 36.25889 36100 ft 425 kts 224°
2026-05-07 08:49 62.96141 36.17137 36101 ft 424 kts 225°
2026-05-07 08:49 62.91756 36.08504 36101 ft 423 kts 224°
2026-05-07 08:50 62.88088 36.01426 36102 ft 425 kts 224°
2026-05-07 08:50 62.82959 35.91416 36101 ft 424 kts 225°
2026-05-07 08:51 62.78571 35.82760 36101 ft 424 kts 225°
2026-05-07 08:51 62.74901 35.75572 36101 ft 424 kts 225°
2026-05-07 08:52 62.69809 35.65619 36101 ft 423 kts 225°
2026-05-07 08:52 62.66097 35.58509 36101 ft 424 kts 224°
2026-05-07 08:53 62.61663 35.50037 36101 ft 424 kts 225°
2026-05-07 08:53 62.57272 35.41534 36101 ft 424 kts 225°
2026-05-07 08:54 62.52114 35.31607 36101 ft 424 kts 224°
2026-05-07 08:54 62.48399 35.24574 36101 ft 425 kts 224°
2026-05-07 08:55 62.43214 35.14838 36101 ft 424 kts 224°
2026-05-07 08:55 62.39535 35.07858 36100 ft 424 kts 224°
2026-05-07 08:56 62.34313 34.98184 36100 ft 425 kts 223°
2026-05-07 08:56 62.29813 34.89952 36101 ft 424 kts 223°
2026-05-07 08:57 62.25348 34.81744 36101 ft 423 kts 223°
2026-05-07 08:57 62.20861 34.73547 36101 ft 423 kts 223°
2026-05-07 08:58 62.16367 34.65370 36073 ft 424 kts 223°
2026-05-07 08:58 62.11908 34.57293 36074 ft 424 kts 223°
2026-05-07 08:59 62.08157 34.50523 36074 ft 424 kts 223°
2026-05-07 08:59 62.02879 34.41034 36074 ft 424 kts 223°
2026-05-07 09:00 61.99117 34.34298 36074 ft 424 kts 222°
2026-05-07 09:00 61.93851 34.24905 36074 ft 424 kts 222°
2026-05-07 09:01 61.89410 34.16711 36073 ft 423 kts 227°
2026-05-07 09:01 61.85710 34.07250 36074 ft 420 kts 235°
2026-05-07 09:02 61.82766 33.99081 36074 ft 420 kts 234°
2026-05-07 09:02 61.79205 33.89302 36074 ft 420 kts 234°
2026-05-07 09:03 61.75052 33.77840 36074 ft 420 kts 234°
2026-05-07 09:03 61.71511 33.68097 36074 ft 420 kts 234°
2026-05-07 09:04 61.68564 33.60009 36074 ft 420 kts 234°
2026-05-07 09:04 61.64387 33.48591 36074 ft 420 kts 235°
2026-05-07 09:05 61.60807 33.38842 36074 ft 420 kts 235°
2026-05-07 09:05 61.57838 33.30788 36074 ft 420 kts 234°
2026-05-07 09:06 61.54230 33.21037 36074 ft 421 kts 234°
2026-05-07 09:06 61.50651 33.11408 36074 ft 420 kts 234°
2026-05-07 09:07 61.46967 33.01901 36073 ft 423 kts 229°
2026-05-07 09:07 61.41978 32.91929 36074 ft 427 kts 226°
2026-05-07 09:08 61.38411 32.84756 36074 ft 429 kts 226°
2026-05-07 09:08 61.33365 32.74678 36074 ft 429 kts 226°
2026-05-07 09:09 61.28842 32.66687 36073 ft 432 kts 216°
2026-05-07 09:09 61.23236 32.61899 36075 ft 440 kts 196°
2026-05-07 09:10 61.17130 32.60538 36074 ft 446 kts 187°
2026-05-07 09:10 61.12000 32.59870 36074 ft 445 kts 188°
2026-05-07 09:11 61.04813 32.58809 36074 ft 445 kts 187°
2026-05-07 09:11 60.98624 32.57955 36074 ft 445 kts 187°
2026-05-07 09:12 60.92474 32.57073 36074 ft 444 kts 188°
2026-05-07 09:12 60.86361 32.56176 36074 ft 445 kts 188°
2026-05-07 09:13 60.80202 32.55290 36074 ft 445 kts 188°
2026-05-07 09:13 60.74033 32.54406 36074 ft 445 kts 188°
2026-05-07 09:14 60.67961 32.52731 36075 ft 441 kts 195°
2026-05-07 09:14 60.61959 32.50262 36074 ft 441 kts 194°
2026-05-07 09:15 60.55948 32.47980 36073 ft 442 kts 194°
2026-05-07 09:15 60.52941 32.46831 35634 ft 439 kts 194°
2026-05-07 09:15 60.50943 32.46069 35148 ft 439 kts 194°
2026-05-07 09:16 60.47935 32.44925 34371 ft 440 kts 194°
2026-05-07 09:16 60.43968 32.43423 33423 ft 438 kts 194°
2026-05-07 09:16 60.41972 32.42671 33037 ft 435 kts 194°
2026-05-07 09:16 60.38036 32.41191 32240 ft 430 kts 194°
2026-05-07 09:17 60.35124 32.40097 31646 ft 426 kts 194°
2026-05-07 09:17 60.32250 32.39020 31059 ft 422 kts 194°
2026-05-07 09:17 60.30329 32.38302 30662 ft 420 kts 194°
2026-05-07 09:17 60.26549 32.36889 29886 ft 415 kts 194°
2026-05-07 09:18 60.23729 32.35838 29307 ft 412 kts 194°
2026-05-07 09:18 60.21847 32.35138 28919 ft 409 kts 194°
2026-05-07 09:18 60.18132 32.33712 28151 ft 403 kts 197°
2026-05-07 09:18 60.15443 32.32061 27584 ft 396 kts 205°
2026-05-07 09:19 60.13795 32.30497 27210 ft 390 kts 213°
2026-05-07 09:19 60.11602 32.27509 26662 ft 382 kts 222°
2026-05-07 09:19 60.09656 32.23922 26139 ft 375 kts 230°
2026-05-07 09:19 60.07683 32.18517 26053 ft 358 kts 243°
2026-05-07 09:20 60.06611 32.13979 26049 ft 365 kts 250°
2026-05-07 09:20 60.05839 32.09116 26045 ft 368 kts 259°
2026-05-07 09:20 60.05585 32.05714 26047 ft 367 kts 266°
2026-05-07 09:20 60.05426 31.98933 26045 ft 366 kts 268°
2026-05-07 09:21 60.05317 31.93846 26046 ft 365 kts 268°
2026-05-07 09:21 60.05185 31.88761 26046 ft 365 kts 268°
2026-05-07 09:21 60.05056 31.83680 26047 ft 365 kts 268°
2026-05-07 09:21 60.04929 31.78581 26047 ft 365 kts 268°
2026-05-07 09:22 60.04845 31.75227 26013 ft 363 kts 268°
2026-05-07 09:22 60.04718 31.70250 25623 ft 357 kts 268°
2026-05-07 09:22 60.04547 31.63682 24952 ft 352 kts 268°
2026-05-07 09:22 60.04421 31.58877 24430 ft 349 kts 268°
2026-05-07 09:23 60.04336 31.55670 24078 ft 347 kts 268°
2026-05-07 09:23 60.04208 31.50895 23555 ft 344 kts 268°
2026-05-07 09:23 60.04034 31.44525 22856 ft 340 kts 268°
2026-05-07 09:23 60.03905 31.39865 22348 ft 337 kts 268°
2026-05-07 09:24 60.03706 31.35252 21853 ft 334 kts 263°
2026-05-07 09:24 60.03427 31.32215 21558 ft 332 kts 259°
2026-05-07 09:24 60.02781 31.26215 20893 ft 333 kts 259°
2026-05-07 09:24 60.02320 31.21656 20375 ft 332 kts 259°
2026-05-07 09:25 60.01866 31.17188 19869 ft 329 kts 259°
2026-05-07 09:25 60.01559 31.14213 19534 ft 327 kts 259°
2026-05-07 09:25 60.01098 31.09763 19028 ft 324 kts 259°
2026-05-07 09:25 60.00489 31.03915 18322 ft 322 kts 259°
2026-05-07 09:26 60.00038 30.99595 17828 ft 319 kts 258°
2026-05-07 09:26 59.99588 30.95315 17342 ft 316 kts 258°
2026-05-07 09:26 59.99136 30.91027 16856 ft 313 kts 258°
2026-05-07 09:26 59.98690 30.86812 16377 ft 310 kts 258°
2026-05-07 09:27 59.98244 30.82617 15900 ft 307 kts 258°
2026-05-07 09:27 59.97807 30.78506 15434 ft 304 kts 258°
2026-05-07 09:27 59.96930 30.70319 14494 ft 298 kts 257°
2026-05-07 09:28 59.96643 30.67650 14189 ft 296 kts 257°
2026-05-07 09:28 59.96214 30.63661 13730 ft 294 kts 257°
2026-05-07 09:28 59.95696 30.58359 13130 ft 291 kts 265°
2026-05-07 09:28 59.96018 30.54466 12720 ft 294 kts 292°
2026-05-07 09:29 59.96750 30.52150 12447 ft 304 kts 306°
2026-05-07 09:29 59.98529 30.47754 11805 ft 299 kts 294°
2026-05-07 09:29 59.99159 30.43933 11383 ft 289 kts 279°
2026-05-07 09:29 59.99609 30.40012 10934 ft 288 kts 282°
2026-05-07 09:30 60.00188 30.36173 10535 ft 292 kts 284°
2026-05-07 09:30 60.00796 30.32399 10293 ft 283 kts 283°
2026-05-07 09:30 60.01192 30.29948 10231 ft 273 kts 283°
2026-05-07 09:30 60.01769 30.26404 9995 ft 266 kts 283°
2026-05-07 09:31 60.02537 30.21724 9519 ft 263 kts 283°
2026-05-07 09:31 60.03104 30.18297 9176 ft 261 kts 283°
2026-05-07 09:31 60.03489 30.14812 9063 ft 256 kts 273°
2026-05-07 09:31 60.03716 30.11214 9046 ft 261 kts 274°
2026-05-07 09:32 60.03885 30.08801 9042 ft 261 kts 274°
2026-05-07 09:32 60.04222 30.04016 9042 ft 264 kts 273°
2026-05-07 09:32 60.04470 30.00443 8936 ft 254 kts 273°
2026-05-07 09:32 60.04711 29.96910 8705 ft 260 kts 274°
2026-05-07 09:33 60.04947 29.93331 8373 ft 257 kts 273°
2026-05-07 09:33 60.05177 29.89800 8043 ft 256 kts 273°
2026-05-07 09:33 60.05331 29.87427 7824 ft 261 kts 273°
2026-05-07 09:33 60.05642 29.82648 7362 ft 258 kts 273°
2026-05-07 09:34 60.05870 29.79122 7029 ft 256 kts 274°
2026-05-07 09:34 60.06003 29.75597 6691 ft 254 kts 261°
2026-05-07 09:34 60.05743 29.73280 6483 ft 258 kts 246°
2026-05-07 09:34 60.04843 29.68915 6196 ft 248 kts 245°
2026-05-07 09:35 60.04215 29.65781 6094 ft 236 kts 242°
2026-05-07 09:35 60.03317 29.63155 6062 ft 222 kts 226°
2026-05-07 09:35 60.02623 29.61609 6048 ft 224 kts 226°
2026-05-07 09:35 60.01590 29.59224 6049 ft 226 kts 227°
2026-05-07 09:36 60.00232 29.56062 5990 ft 225 kts 226°
2026-05-07 09:36 59.99549 29.54482 5996 ft 227 kts 226°
2026-05-07 09:36 59.97944 29.51876 6006 ft 225 kts 205°
2026-05-07 09:36 59.96540 29.50531 5987 ft 222 kts 206°
2026-05-07 09:37 59.95622 29.49606 5994 ft 221 kts 206°
2026-05-07 09:37 59.94239 29.48202 5995 ft 225 kts 205°
2026-05-07 09:37 59.92401 29.46343 5993 ft 221 kts 205°
2026-05-07 09:37 59.90928 29.45501 5999 ft 221 kts 184°
2026-05-07 09:38 59.89393 29.45312 5988 ft 222 kts 184°
2026-05-07 09:38 59.87866 29.45062 5992 ft 222 kts 185°
2026-05-07 09:38 59.86320 29.44789 5993 ft 222 kts 185°
2026-05-07 09:38 59.85304 29.44619 5992 ft 222 kts 184°
2026-05-07 09:39 59.83752 29.44508 5985 ft 222 kts 173°
2026-05-07 09:39 59.82283 29.45335 5999 ft 223 kts 162°
2026-05-07 09:39 59.80826 29.46439 5988 ft 222 kts 153°
2026-05-07 09:39 59.79466 29.49488 5998 ft 231 kts 115°
2026-05-07 09:40 59.79198 29.51539 5989 ft 232 kts 99°
2026-05-07 09:40 59.79400 29.54785 5989 ft 246 kts 70°
2026-05-07 09:40 59.80872 29.58256 6003 ft 245 kts 45°
2026-05-07 09:40 59.82059 29.60633 5871 ft 244 kts 51°
2026-05-07 09:41 59.83208 29.63096 5619 ft 244 kts 50°
2026-05-07 09:41 59.84390 29.65538 5351 ft 241 kts 50°
2026-05-07 09:41 59.85544 29.67923 5080 ft 239 kts 49°
2026-05-07 09:41 59.86682 29.70285 4782 ft 238 kts 49°
2026-05-07 09:42 59.87812 29.72619 4508 ft 232 kts 50°
2026-05-07 09:42 59.88916 29.74894 4238 ft 226 kts 50°
2026-05-07 09:42 59.89995 29.77121 3983 ft 220 kts 49°
2026-05-07 09:42 59.90702 29.78583 3824 ft 215 kts 50°
2026-05-07 09:43 59.91625 29.80818 3581 ft 206 kts 66°
2026-05-07 09:43 59.91909 29.84264 3493 ft 181 kts 102°
2026-05-07 09:43 59.91698 29.85852 3495 ft 180 kts 117°
2026-05-07 09:43 59.90653 29.88334 3314 ft 172 kts 147°
2026-05-07 09:44 59.89677 29.89616 3116 ft 165 kts 146°
2026-05-07 09:44 59.88733 29.90881 3009 ft 163 kts 146°
2026-05-07 09:44 59.87783 29.92135 2886 ft 166 kts 145°
2026-05-07 09:44 59.86819 29.93406 2732 ft 167 kts 144°
2026-05-07 09:45 59.85857 29.94672 2578 ft 164 kts 144°
2026-05-07 09:45 59.85080 29.96298 2483 ft 162 kts 111°
2026-05-07 09:45 59.84847 29.98469 2520 ft 166 kts 106°
2026-05-07 09:45 59.84501 30.00625 2463 ft 159 kts 109°
2026-05-07 09:46 59.84195 30.02686 2314 ft 157 kts 108°
2026-05-07 09:46 59.83893 30.04742 2155 ft 151 kts 108°
2026-05-07 09:46 59.83600 30.06718 1932 ft 143 kts 107°
2026-05-07 09:46 59.83332 30.08559 1770 ft 139 kts 108°
2026-05-07 09:47 59.83051 30.10423 1563 ft 138 kts 106°
2026-05-07 09:47 59.82785 30.12269 1376 ft 138 kts 108°
2026-05-07 09:47 59.82514 30.14094 1189 ft 138 kts 105°
2026-05-07 09:47 59.82245 30.15926 1003 ft 140 kts 109°
2026-05-07 09:48 59.81970 30.17787 813 ft 139 kts 108°
2026-05-07 09:48 59.81792 30.18990 692 ft 137 kts 107°
2026-05-07 09:48 59.81435 30.21421 442 ft 137 kts 107°
2026-05-07 09:48 59.81175 30.23249 243 ft 138 kts 108°
2026-05-07 09:49 59.80982 30.24476 144 ft 136 kts 107°
2026-05-07 09:49 59.80669 30.26586 88 ft 87 kts 105°
2026-05-07 09:49 59.80552 30.27373 87 ft 40 kts 105°
2026-05-07 09:49 59.80483 30.27860 87 ft 30 kts 105°
2026-05-07 09:50 59.80429 30.28217 87 ft 25 kts 104°
2026-05-07 09:50 59.80381 30.28532 87 ft 22 kts 107°
2026-05-07 09:50 59.80343 30.28776 87 ft 8 kts 107°
2026-05-07 09:50 59.80304 30.28851 87 ft 8 kts 183°
2026-05-07 09:51 59.80250 30.28768 87 ft 11 kts 229°
2026-05-07 09:51 59.80195 30.28642 87 ft 13 kts 228°
2026-05-07 09:51 59.80157 30.28492 87 ft 12 kts 278°
2026-05-07 09:51 59.80181 30.28318 87 ft 14 kts 287°
2026-05-07 09:52 59.80201 30.28188 87 ft 15 kts 286°
2026-05-07 09:52 59.80244 30.27897 87 ft 17 kts 286°
2026-05-07 09:52 59.80281 30.27651 87 ft 19 kts 286°
2026-05-07 09:52 59.80307 30.27474 87 ft 19 kts 286°
2026-05-07 09:53 59.80356 30.27145 87 ft 17 kts 286°
2026-05-07 09:53 59.80379 30.26993 87 ft 17 kts 286°
2026-05-07 09:53 59.80382 30.26819 87 ft 11 kts 227°
2026-05-07 09:53 59.80284 30.26746 87 ft 10 kts 196°
2026-05-07 09:54 59.80237 30.26719 87 ft 10 kts 196°
2026-05-07 09:54 59.80168 30.26679 87 ft 9 kts 195°
2026-05-07 09:54 59.80107 30.26642 87 ft 9 kts 198°
2026-05-07 09:54 59.80048 30.26607 87 ft 5 kts 195°
2026-05-07 09:55 59.80008 30.26596 87 ft 5 kts 168°
2026-05-07 09:55 59.79984 30.26638 87 ft 4 kts 116°
2026-05-07 09:55 59.79975 30.26684 87 ft 3 kts 108°
2026-05-07 09:55 59.79971 30.26718 87 ft 4 kts 106°
2026-05-07 09:56 59.79963 30.26765 87 ft 1 kts 106°
2026-05-07 09:56 59.79961 30.26780 87 ft 1 kts 106°
2026-05-07 09:56 59.79960 30.26790 87 ft 0 kts 106°